FW5399 Weather Reports


Display with metric or nautical units.
time (UTC)temp
F
wind
direction
speed
MPH
gust
MPH
rain 1hr
in
rain 24hr
in
rain mn
in
humidity
%
barometer
mb
20260505011010 69 153 0.0 3.0 0.00 0.00 0.00 66 1032.6
20260505010509 69 59 0.0 3.0 0.00 0.00 0.00 65 1032.8
20260505010009 70 109 0.0 2.0 0.00 0.00 0.00 65 1032.8
20260505005504 70 317 0.0 1.0 0.00 0.00 0.00 65 1032.8
20260505004959 70 317 0.0 1.0 0.00 0.00 0.00 66 1032.9
20260505004452 70 316 0.0 1.0 0.00 0.00 0.00 66 1033.0
20260505003947 70 318 0.0 1.0 0.00 0.00 0.00 66 1033.1
20260505003447 70 338 0.0 1.0 0.00 0.00 0.00 68 1033.1
20260505002945 69 338 0.0 1.0 0.00 0.00 0.00 67 1033.2
20260505002445 70 292 0.0 1.0 0.00 0.00 0.00 64 1033.3
20260505001943 70 237 0.0 2.0 0.00 0.00 0.00 68 1033.4
20260505001442 69 5 0.0 2.0 0.00 0.00 0.00 69 1033.5
20260505000944 69 338 0.0 1.0 0.00 0.00 0.00 69 1033.5
20260505000834 68 0 0.0 2.0 0.00 0.00 0.00 68 1033.6
20260504235947 68 288 0.0 2.0 0.00 0.00 0.00 68 1033.6
20260504235445 67 277 0.0 0.0 0.00 0.00 0.00 68 1033.7
20260504234938 68 261 0.0 1.0 0.00 0.00 0.00 69 1033.9
20260504234437 67 266 0.0 1.0 0.00 0.00 0.00 70 1033.8
20260504233937 66 295 0.0 1.0 0.00 0.00 0.00 70 1033.9
20260504233433 66 290 0.0 1.0 0.00 0.00 0.00 70 1034.1
20260504232932 65 338 0.0 2.0 0.00 0.00 0.00 71 1034.1
20260504232430 65 325 0.0 3.0 0.00 0.00 0.00 70 1034.1
20260504231928 65 338 0.0 3.0 0.00 0.00 0.00 71 1034.1
20260504231428 65 306 0.0 2.0 0.00 0.00 0.00 71 1034.0
20260504230942 65 284 0.0 2.0 0.00 0.00 0.00 72 1034.1
20260504230816 65 336 0.0 2.0 0.00 0.00 0.00 71 1034.1
20260504225931 66 295 0.0 1.0 0.00 0.00 0.00 71 1034.2
20260504225427 66 341 0.0 2.0 0.00 0.00 0.00 70 1034.2
20260504224919 66 314 0.0 3.0 0.00 0.00 0.00 70 1034.2
20260504224414 66 327 0.0 3.0 0.00 0.00 0.00 72 1034.2
20260504223907 65 305 0.0 2.0 0.00 0.00 0.00 72 1034.3
20260504223401 65 284 0.0 4.0 0.00 0.00 0.00 72 1034.4
20260504222857 65 320 0.0 4.0 0.00 0.00 0.00 73 1034.5
20260504222350 64 331 0.0 3.0 0.00 0.00 0.00 73 1034.4
20260504221843 64 298 0.0 3.0 0.00 0.00 0.00 75 1034.3
20260504221337 63 283 0.0 3.0 0.00 0.00 0.00 76 1034.3
20260504220827 63 304 0.0 3.0 0.00 0.00 0.00 77 1034.3
20260504220720 62 288 0.0 3.0 0.00 0.00 0.00 75 1034.3
20260504215814 63 329 0.0 2.0 0.00 0.00 0.00 75 1034.2
20260504215308 63 312 0.0 1.0 0.00 0.00 0.00 77 1034.2
20260504214806 62 305 0.0 2.0 0.00 0.00 0.00 77 1034.2
20260504214253 61 313 0.0 2.0 0.00 0.00 0.00 79 1034.3
20260504214201 61 307 0.0 2.0 0.00 0.00 0.00 78 1034.2
20260504213246 61 308 0.0 2.0 0.00 0.00 0.00 79 1034.3
20260504212743 60 298 0.0 2.0 0.00 0.00 0.00 81 1034.3
20260504212245 59 317 0.0 2.0 0.00 0.00 0.00 83 1034.4
20260504211747 58 287 0.0 2.0 0.00 0.00 0.00 83 1034.5
20260504211243 58 291 0.0 0.0 0.00 0.00 0.00 86 1034.4
20260504210741 57 292 0.0 0.0 0.00 0.00 0.00 87 1034.3
20260504210239 56 260 0.0 2.0 0.00 0.00 0.00 88 1034.4
20260504205735 56 264 0.0 2.0 0.00 0.00 0.00 88 1034.3
20260504205233 56 303 0.0 0.0 0.00 0.00 0.00 88 1034.4
20260504204733 56 303 0.0 0.0 0.00 0.00 0.00 89 1034.4
20260504204234 56 291 0.0 0.0 0.00 0.00 0.00 89 1034.5
20260504203728 55 291 0.0 0.0 0.00 0.00 0.00 89 1034.4
20260504203224 55 291 0.0 0.0 0.00 0.00 0.00 89 1034.5
20260504202722 55 291 0.0 0.0 0.00 0.00 0.00 89 1034.5
20260504202223 55 291 0.0 0.0 0.00 0.00 0.00 89 1034.4
20260504201724 55 291 0.0 0.0 0.00 0.00 0.00 90 1034.5
20260504201224 55 291 0.0 0.0 0.00 0.00 0.00 90 1034.4
20260504200718 54 291 0.0 2.0 0.00 0.00 0.00 90 1034.4
20260504200212 54 291 0.0 2.0 0.00 0.00 0.00 90 1034.2
20260504195713 54 289 0.0 4.0 0.00 0.00 0.00 90 1034.2
20260504195212 53 311 0.0 4.0 0.00 0.00 0.00 90 1034.2
20260504194711 53 295 0.0 1.0 0.00 0.00 0.00 91 1034.1
20260504194212 53 317 0.0 0.0 0.00 0.00 0.00 91 1034.0
20260504193711 53 317 0.0 0.0 0.00 0.00 0.00 91 1034.0
20260504193215 53 318 0.0 0.0 0.00 0.00 0.00 91 1034.0
20260504192712 53 317 0.0 0.0 0.00 0.00 0.00 91 1034.1
20260504192207 53 317 0.0 1.0 0.00 0.00 0.00 91 1034.1
20260504191706 52 307 0.0 1.0 0.00 0.00 0.00 91 1034.0
20260504191600 52 289 0.0 0.0 0.00 0.00 0.00 92 1033.8
20260504190706 52 289 0.0 0.0 0.00 0.00 0.00 92 1033.8
20260504190207 52 289 0.0 0.0 0.00 0.00 0.00 92 1033.8
20260504185707 52 289 0.0 2.0 0.00 0.00 0.00 92 1033.8
20260504185555 52 289 0.0 3.0 0.00 0.00 0.00 92 1033.8
20260504184709 52 320 0.0 3.0 0.00 0.00 0.00 92 1033.7
20260504184207 52 279 0.0 4.0 0.00 0.00 0.00 92 1033.8
20260504183703 52 241 0.0 4.0 0.00 0.00 0.00 92 1033.8
20260504183209 52 287 0.0 4.0 0.00 0.00 0.00 93 1033.8
20260504182659 52 263 0.0 3.0 0.00 0.00 0.00 93 1033.9
20260504182153 52 262 1.0 3.0 0.00 0.00 0.00 93 1033.8
20260504181647 52 286 0.0 3.0 0.00 0.00 0.00 94 1033.9
20260504181141 52 246 0.0 3.0 0.00 0.00 0.00 94 1033.9
20260504180634 52 290 0.0 2.0 0.00 0.00 0.00 94 1033.9
20260504180130 51 269 0.0 2.0 0.00 0.00 0.00 95 1033.9
20260504180020 51 286 0.0 2.0 0.00 0.00 0.00 95 1034.0
20260504175117 51 261 0.0 1.0 0.00 0.00 0.00 95 1034.0
20260504174611 51 298 0.0 1.0 0.00 0.00 0.00 95 1034.0
20260504174104 51 299 0.0 1.0 0.00 0.00 0.00 95 1034.0
20260504173559 51 303 0.0 1.0 0.00 0.00 0.00 95 1034.0
20260504173054 51 304 0.0 1.0 0.00 0.00 0.00 95 1034.0
20260504172546 51 304 0.0 1.0 0.00 0.00 0.00 96 1034.1
20260504172041 51 305 0.0 1.0 0.00 0.00 0.00 96 1034.1
20260504171535 51 304 0.0 0.0 0.00 0.00 0.00 96 1034.1
20260504171029 50 304 0.0 0.0 0.00 0.00 0.00 96 1034.1
20260504170529 50 304 0.0 1.0 0.00 0.00 0.00 96 1034.2
20260504160411 51 324 0.0 1.0 0.00 0.00 0.00 93 1034.3
20260504150820 52 340 0.0 1.0 0.00 0.00 0.00 92 1034.7
20260504150731 52 306 0.0 1.0 0.00 0.00 0.00 92 1034.8
20260504140814 51 324 0.0 1.0 0.00 0.01 0.00 93 1035.3
20260504140309 51 324 0.0 1.0 0.00 0.01 0.00 94 1035.3
20260504130310 50 324 0.0 0.0 0.00 0.01 0.00 98 1035.9
20260504110234 44 101 0.0 0.0 0.00 0.01 0.01 99 1035.7
20260504100230 44 101 0.0 0.0 0.00 0.01 0.01 97 1035.8
20260504100206 45 101 0.0 0.0 0.00 0.01 0.01 97 1035.6
20260504081124 51 101 0.0 0.0 0.00 0.01 0.01 97 1035.5
20260504080617 52 101 0.0 0.0 0.00 0.01 0.01 97 1035.4
20260504080501 52 101 0.0 0.0 0.00 0.01 0.01 97 1035.3
20260504050256 55 101 0.0 0.0 0.00 0.01 0.01 88 1033.8
20260504050211 56 101 0.0 0.0 0.00 0.01 0.01 87 1033.7
20260504045701 56 101 0.0 0.0 0.00 0.01 0.01 86 1033.7
20260504044752 57 101 0.0 0.0 0.00 0.01 0.01 85 1033.6
20260504044422 58 101 0.0 0.0 0.00 0.01 0.01 83 1033.6
20260504043245 59 101 0.0 0.0 0.00 0.01 0.01 80 1033.7
20260504043146 59 101 0.0 0.0 0.00 0.01 0.01 79 1033.6
20260504042245 60 101 0.0 1.0 0.00 0.01 0.01 78 1033.6
20260504041743 61 101 0.0 1.0 0.00 0.01 0.01 76 1033.5
20260504041639 61 144 0.0 2.0 0.00 0.01 0.01 75 1033.5
20260504041224 61 134 0.0 2.0 0.00 0.01 0.01 75 1033.5
20260504040642 62 133 0.0 2.0 0.00 0.01 0.01 74 1033.6
20260504035742 62 5 0.0 2.0 0.00 0.01 0.01 74 1033.6
20260504035241 62 175 0.0 2.0 0.00 0.01 0.01 74 1033.5
20260504034741 63 123 0.0 2.0 0.00 0.01 0.01 74 1033.6
20260504034420 64 149 0.0 3.0 0.00 0.01 0.01 73 1033.5
20260504034325 63 68 0.0 3.0 0.00 0.01 0.01 73 1033.5
20260504033141 65 124 1.0 4.0 0.00 0.01 0.01 72 1033.4
20260504032711 65 125 1.0 6.0 0.00 0.01 0.01 71 1033.4
20260504031740 65 120 1.0 6.0 0.00 0.01 0.01 70 1033.4
20260504031242 66 195 0.0 4.0 0.00 0.01 0.01 69 1033.5
20260504030740 66 35 0.0 3.0 0.00 0.01 0.01 70 1033.5
20260504030300 65 185 0.0 3.0 0.00 0.01 0.01 70 1033.4
20260504025744 65 45 1.0 5.0 0.00 0.01 0.01 70 1033.5
20260504025705 65 125 1.0 5.0 0.00 0.01 0.01 70 1033.5
20260504025200 65 160 1.0 4.0 0.00 0.01 0.01 69 1033.5
20260504024238 65 171 1.0 4.0 0.00 0.01 0.01 70 1033.5
20260504023735 65 132 2.0 5.0 0.00 0.01 0.01 69 1033.5
20260504023234 65 119 2.0 5.0 0.00 0.01 0.01 68 1033.4
20260504022733 66 165 1.0 5.0 0.00 0.01 0.01 67 1033.5
20260504022232 66 201 1.0 3.0 0.00 0.01 0.01 68 1033.4
20260504021729 66 161 1.0 4.0 0.00 0.01 0.01 67 1033.4
20260504021406 67 330 0.0 4.0 0.00 0.01 0.01 68 1033.5
20260504020223 66 7 1.0 4.0 0.00 0.01 0.01 68 1033.5
20260504015716 66 154 0.0 4.0 0.00 0.01 0.01 66 1033.5
20260504015212 67 145 0.0 4.0 0.00 0.01 0.01 67 1033.6
20260504014704 66 52 0.0 2.0 0.00 0.01 0.01 69 1033.5
20260504014158 66 19 0.0 2.0 0.00 0.01 0.01 67 1033.6
20260504013652 66 235 0.0 0.0 0.00 0.01 0.01 67 1033.7
20260504013147 66 238 0.0 1.0 0.00 0.01 0.01 71 1033.7
20260504012642 65 232 0.0 0.0 0.00 0.01 0.01 71 1033.7
20260504012134 64 291 0.0 1.0 0.00 0.01 0.01 70 1033.8
20260504011628 65 226 0.0 2.0 0.00 0.01 0.01 69 1034.0